TimeEST,TemperatureF,Dew PointF,Humidity,Sea Level PressureIn,VisibilityMPH,Wind Direction,Wind SpeedMPH,Gust SpeedMPH,PrecipitationIn,Events,Conditions,WindDirDegrees,DateUTC
12:53 AM,19.9,12.9,74,30.32,10.0,ESE,5.8,-,N/A,,Clear,120,2013-02-22 05:53:00
1:53 AM,21.0,14.0,74,30.29,10.0,East,6.9,-,N/A,,Clear,100,2013-02-22 06:53:00
3:53 AM,21.9,12.9,68,30.22,10.0,East,6.9,-,N/A,,Partly Cloudy,80,2013-02-22 08:53:00
4:53 AM,23.0,14.0,68,30.14,10.0,East,8.1,-,N/A,,Scattered Clouds,90,2013-02-22 09:53:00
5:53 AM,25.0,14.0,63,30.12,10.0,ESE,8.1,16.1,N/A,,Overcast,120,2013-02-22 10:53:00
6:53 AM,26.1,15.1,63,30.09,10.0,SE,11.5,21.9,0.00,,Overcast,140,2013-02-22 11:53:00
7:53 AM,27.0,21.0,78,30.05,6.0,ESE,11.5,19.6,0.00,,Light Freezing Drizzle,120,2013-02-22 12:53:00
8:53 AM,28.0,21.0,75,30.01,10.0,SE,9.2,19.6,0.00,,Overcast,130,2013-02-22 13:53:00
9:18 AM,28.4,21.2,74,29.97,7.0,SE,15.0,25.3,0.00,Rain,Light Freezing Rain,130,2013-02-22 14:18:00
9:40 AM,28.4,21.2,74,29.97,10.0,SE,13.8,23.0,0.00,,Overcast,130,2013-02-22 14:40:00
9:53 AM,30.0,21.9,72,29.99,10.0,SSE,13.8,25.3,0.00,,Overcast,150,2013-02-22 14:53:00
10:03 AM,30.2,21.2,69,29.95,7.0,SSE,12.7,-,0.00,Rain,Light Freezing Rain,150,2013-02-22 15:03:00
10:33 AM,30.2,24.8,80,29.97,10.0,SE,21.9,27.6,0.00,Rain,Light Freezing Rain,140,2013-02-22 15:33:00
10:36 AM,30.2,24.8,80,29.96,8.0,SE,18.4,27.6,0.00,,Overcast,130,2013-02-22 15:36:00
10:44 AM,30.2,24.8,80,29.96,4.0,SSW,11.5,25.3,0.00,,Overcast,200,2013-02-22 15:44:00
11:53 AM,30.9,26.1,82,29.97,10.0,SSE,20.7,27.6,N/A,,Overcast,150,2013-02-22 16:53:00
12:53 PM,33.1,28.9,85,29.96,10.0,SSE,18.4,-,0.05,,Overcast,160,2013-02-22 17:53:00
1:11 PM,33.8,30.2,87,29.92,10.0,SSE,17.3,25.3,N/A,,Overcast,160,2013-02-22 18:11:00
1:21 PM,33.8,30.2,87,29.92,10.0,SSE,20.7,26.5,N/A,,Overcast,150,2013-02-22 18:21:00
1:53 PM,35.1,30.9,85,29.92,10.0,SSE,17.3,27.6,N/A,,Overcast,160,2013-02-22 18:53:00
2:40 PM,35.6,33.8,93,29.91,10.0,SSE,13.8,-,N/A,,Overcast,150,2013-02-22 19:40:00
2:53 PM,36.0,33.1,89,29.94,10.0,SSE,16.1,24.2,N/A,,Overcast,160,2013-02-22 19:53:00
3:24 PM,37.4,33.8,87,29.91,9.0,SSE,12.7,20.7,N/A,,Overcast,160,2013-02-22 20:24:00
3:44 PM,37.4,33.8,87,29.91,8.0,South,15.0,20.7,N/A,,Overcast,170,2013-02-22 20:44:00
3:53 PM,37.0,34.0,89,29.94,8.0,SSE,13.8,-,N/A,,Overcast,160,2013-02-22 20:53:00
4:38 PM,37.4,33.8,87,29.92,8.0,South,11.5,-,N/A,,Overcast,170,2013-02-22 21:38:00
4:53 PM,37.9,35.1,89,29.95,8.0,South,10.4,-,N/A,,Overcast,170,2013-02-22 21:53:00
5:53 PM,39.0,35.1,86,29.96,8.0,South,11.5,-,N/A,,Overcast,190,2013-02-22 22:53:00
6:01 PM,39.2,35.6,87,29.94,8.0,South,11.5,-,N/A,,Overcast,190,2013-02-22 23:01:00
6:53 PM,39.9,35.1,83,29.97,9.0,SSW,12.7,-,N/A,,Overcast,200,2013-02-22 23:53:00
7:15 PM,39.2,33.8,81,29.95,10.0,SSW,10.4,20.7,N/A,,Overcast,200,2013-02-23 00:15:00
7:53 PM,39.0,32.0,76,29.98,10.0,SSW,13.8,-,N/A,,Mostly Cloudy,210,2013-02-23 00:53:00
8:53 PM,37.9,32.0,79,29.97,10.0,SW,10.4,-,N/A,,Overcast,220,2013-02-23 01:53:00
9:30 PM,37.4,32.0,81,29.96,10.0,SW,6.9,-,N/A,,Overcast,220,2013-02-23 02:30:00
9:50 PM,37.4,32.0,81,29.96,10.0,SSW,8.1,-,N/A,,Overcast,210,2013-02-23 02:50:00
9:53 PM,37.9,32.0,79,29.98,10.0,SSW,8.1,-,N/A,,Overcast,200,2013-02-23 02:53:00
10:53 PM,37.0,30.0,76,29.98,10.0,SW,11.5,-,N/A,,Overcast,230,2013-02-23 03:53:00
11:27 PM,37.4,30.2,75,29.96,10.0,SW,9.2,-,N/A,,Overcast,220,2013-02-23 04:27:00
11:53 PM,37.0,30.0,76,29.97,10.0,SW,6.9,-,N/A,,Overcast,220,2013-02-23 04:53:00